Location: Waco, TX
(31.5480°N, 97.1670°W)
Time: 03:08:29
(UTC-05:00)

ISS - Pass Details

Date: 18 September 2017
Orbit: 401 x 407 km, 51.6° (Epoch: 22 September)

Event Time Altitude Azimuth Distance (km) Brightness Sun altitude
Rises 21:39:58 0° 184° (S) 2,300 - -27.9°
Reaches altitude 10° 21:42:53 10° 156° (SSE) 1,448 - -28.5°
Maximum altitude 21:44:29 13° 126° (SE) 1,279 - -28.8°
Drops below altitude 10° 21:46:05 10° 96° (E) 1,454 - -29.1°
Sets 21:49:00 0° 68° (ENE) 2,320 - -29.7°
